Location: Little Chesterford
(52.0500°N, 0.1833°E)
Time: 11:39:58
(UTC+00:00)

Terra - Pass Details

Date: 26 September 2023
Orbit: 694 x 695 km, 98.1° (Epoch: 11 December)

Event Time Altitude Azimuth Distance (km) Brightness Sun altitude
Exits shadow 21:09:02 44° 0° (N) 959 2.7 -29.2°
Drops below altitude 10° 21:12:19 10° 349° (NNW) 2,165 5.0 -29.6°
Sets 21:14:35 0° 347° (NNW) 3,087 5.9 -29.8°
